Retour au catalogue

QIANFAN-171

ActifCommunicationsPO
NORAD 69388·PAYLOAD·🇨🇳 China

Lancé Jun 4, 2026 depuis Taiyuan Satellite Launch Center

Loading…

Prochains Passages (prochaines 24 heures)

TLE

FraisSource: Space-Track

Époque: Sep 14, 2026, 22:15 UTC

1 69388U 26124G   26257.92743209  .00000138  00000-0  19559-3 0  9991
2 69388  89.0092 352.5623 0002119 103.9546 256.1841 13.51018131 14175

Suivez QIANFAN-171 en temps réel avec AllMySat

Download on the App Store